Date String (YYYY-MM-DD hh:mm:ss) UTC,Instrument flags,Ambient pressure (hPa),Sample flow (lpm),Bypass flow (lpm),Sample temperature (°C),Ambient temperature (°C),ASC tube jacket temperature (°C),LED temperature (°C),Box temperature (°C),Sample RH (%),Span deviation,Mass concentration (μg/m³),Mass concentration (μg/m³),Mass concentration (μg/m³)
DateTimeUTC,F1_M11,P_M11,Q1_M11,Q2_M11,T1_M11,T2_M11,T3_M11,T4_M11,T5_M11,U1_M11,ZSPAN_M11,X0_M11,X2_M11,X1_M11
2022-08-13 06:00:00,,0829.5,5.00,0.00,29.3,27.3,00.0,38.0,31.0,25.7,0000.0,0015.70,0005.57,0004.34
2022-08-13 06:01:00,,0829.5,4.99,0.00,29.2,27.0,00.0,38.0,30.9,25.8,0000.0,0015.56,0005.54,0004.33
2022-08-13 06:02:00,,0829.6,5.01,0.00,29.2,26.9,00.0,37.9,30.8,26.0,0000.0,0014.90,0005.52,0004.33
2022-08-13 06:03:00,,0829.6,5.00,0.00,29.1,27.0,00.0,37.9,30.8,26.1,0000.0,0015.11,0005.47,0004.33
2022-08-13 06:04:00,,0829.6,5.00,0.00,29.1,27.2,00.0,37.9,30.8,26.1,0000.0,0014.86,0005.43,0004.34
2022-08-13 06:05:00,,0829.6,5.01,0.00,29.1,27.4,00.0,37.9,30.9,26.1,0000.0,0014.52,0005.45,0004.35
2022-08-13 06:06:00,,0829.5,5.01,0.00,29.1,27.5,00.0,37.9,31.0,26.1,0000.0,0014.24,0005.46,0004.35
2022-08-13 06:07:00,,0829.5,5.00,0.00,29.1,27.7,00.0,37.9,31.0,26.1,0000.0,0013.07,0005.43,0004.33
2022-08-13 06:08:00,,0829.5,5.01,0.00,29.1,27.9,00.0,37.9,31.0,26.1,0000.0,0013.04,0005.42,0004.33
2022-08-13 06:09:00,,0829.5,4.99,0.00,29.2,28.0,00.0,37.9,31.1,26.0,0000.0,0013.76,0005.50,0004.34
2022-08-13 06:10:00,,0829.5,5.01,0.00,29.2,28.1,00.0,37.9,31.1,26.0,0000.0,0014.72,0005.56,0004.34
2022-08-13 06:11:00,,0829.6,4.99,0.00,29.2,28.2,00.0,38.0,31.2,25.8,0000.0,0015.47,0005.58,0004.34
2022-08-13 06:12:00,,0829.5,4.99,0.00,29.3,28.3,00.0,38.0,31.2,25.8,0000.0,0015.61,0005.64,0004.34
2022-08-13 06:13:00,,0829.6,5.01,0.00,29.3,28.4,00.0,38.0,31.3,25.7,0000.0,0015.87,0005.64,0004.33
2022-08-13 06:14:00,,0829.5,5.01,0.00,29.3,28.5,00.0,38.0,31.3,25.6,0000.0,0015.49,0005.62,0004.33
2022-08-13 06:15:00,,0829.6,5.00,0.00,29.4,28.6,00.0,38.1,31.4,25.6,0000.0,0015.17,0005.65,0004.34
2022-08-13 06:16:00,,0829.6,4.99,0.00,29.4,28.2,00.0,38.0,31.2,25.5,0000.0,0015.72,0005.67,0004.34
2022-08-13 06:17:00,,0829.6,5.00,0.00,29.3,27.6,00.0,38.0,31.1,25.5,0000.0,0015.38,0005.64,0004.34
2022-08-13 06:18:00,,0829.6,5.00,0.00,29.3,27.5,00.0,38.0,31.1,25.6,0000.0,0014.92,0005.62,0004.35
2022-08-13 06:19:00,,0829.6,4.99,0.00,29.2,27.5,00.0,38.0,31.0,25.7,0000.0,0014.92,0005.61,0004.36
2022-08-13 06:20:00,,0829.6,5.00,0.00,29.2,27.6,00.0,38.0,31.0,25.7,0000.0,0014.66,0005.54,0004.34
2022-08-13 06:21:00,,0829.6,5.00,0.00,29.2,27.7,00.0,38.0,31.1,25.7,0000.0,0014.51,0005.51,0004.34
2022-08-13 06:22:00,,0829.6,5.01,0.00,29.2,27.9,00.0,38.0,31.1,25.7,0000.0,0014.55,0005.49,0004.35
2022-08-13 06:23:00,,0829.6,5.00,0.00,29.3,28.0,00.0,38.0,31.2,25.7,0000.0,0015.28,0005.48,0004.36
2022-08-13 06:24:00,,0829.6,5.00,0.00,29.3,28.1,00.0,38.0,31.2,25.6,0000.0,0015.05,0005.50,0004.38
2022-08-13 06:25:00,,0829.7,5.00,0.00,29.3,28.2,00.0,38.0,31.2,25.5,0000.0,0015.06,0005.50,0004.39
2022-08-13 06:26:00,,0829.8,5.00,0.00,29.3,28.3,00.0,38.1,31.3,25.4,0000.0,0014.66,0005.44,0004.39
2022-08-13 06:27:00,,0829.6,5.00,0.00,29.4,28.4,00.0,38.1,31.3,25.8,0000.0,0014.27,0005.38,0004.39
2022-08-13 06:28:00,,0829.6,5.00,0.00,29.4,28.5,00.0,38.1,31.4,25.7,0000.0,0014.84,0005.38,0004.40
2022-08-13 06:29:00,,0829.7,5.00,0.00,29.4,28.6,00.0,38.1,31.4,25.8,0000.0,0015.17,0005.39,0004.39
2022-08-13 06:30:00,,0829.7,4.99,0.00,29.4,28.1,00.0,38.1,31.2,25.9,0000.0,0016.39,0005.39,0004.39
2022-08-13 06:31:00,,0829.6,5.00,0.00,29.4,27.6,00.0,38.1,31.1,26.0,0000.0,0016.36,0005.44,0004.42
2022-08-13 06:32:00,,0829.6,4.99,0.00,29.3,27.4,00.0,38.0,31.0,26.0,0000.0,0015.87,0005.48,0004.44
2022-08-13 06:33:00,,0829.7,5.01,0.00,29.2,27.5,00.0,38.0,31.0,25.9,0000.0,0015.31,0005.50,0004.44
2022-08-13 06:34:00,,0829.7,4.99,0.00,29.2,27.6,00.0,38.0,31.0,26.0,0000.0,0014.01,0005.54,0004.45
2022-08-13 06:35:00,,0829.7,4.99,0.00,29.2,27.7,00.0,38.0,31.1,25.8,0000.0,0013.94,0005.55,0004.44
2022-08-13 06:36:00,,0829.7,5.01,0.00,29.3,27.9,00.0,38.0,31.1,25.7,0000.0,0014.05,0005.58,0004.43
2022-08-13 06:37:00,,0829.7,5.00,0.00,29.3,28.0,00.0,38.1,31.2,25.6,0000.0,0014.50,0005.66,0004.44
2022-08-13 06:38:00,,0829.7,5.00,0.00,29.3,28.1,00.0,38.1,31.2,25.5,0000.0,0015.15,0005.71,0004.44
2022-08-13 06:39:00,,0829.8,5.00,0.00,29.3,28.2,00.0,38.1,31.3,25.3,0000.0,0014.38,0005.74,0004.43
2022-08-13 06:40:00,,0829.8,5.01,0.00,29.4,28.4,00.0,38.1,31.3,25.3,0000.0,0014.13,0005.76,0004.44
2022-08-13 06:41:00,,0829.8,4.99,0.00,29.4,28.4,00.0,38.1,31.3,25.3,0000.0,0013.05,0005.84,0004.44
2022-08-13 06:42:00,,0829.8,5.00,0.00,29.4,28.5,00.0,38.1,31.4,25.1,0000.0,0013.15,0005.87,0004.44
2022-08-13 06:43:00,,0829.8,5.00,0.00,29.5,28.5,00.0,38.2,31.4,25.1,0000.0,0012.82,0005.77,0004.42
2022-08-13 06:44:00,,0829.7,4.99,0.00,29.4,28.0,00.0,38.1,31.2,24.9,0000.0,0012.86,0005.73,0004.41
2022-08-13 06:45:00,,0829.8,5.01,0.00,29.4,27.5,00.0,38.1,31.1,24.9,0000.0,0013.07,0005.69,0004.40
2022-08-13 06:46:00,,0829.8,4.99,0.00,29.3,27.5,00.0,38.1,31.1,25.1,0000.0,0013.17,0005.69,0004.39
2022-08-13 06:47:00,,0829.8,5.00,0.00,29.3,27.5,00.0,38.1,31.0,25.2,0000.0,0013.25,0005.67,0004.39
2022-08-13 06:48:00,,0829.8,5.00,0.00,29.3,27.6,00.0,38.1,31.1,25.2,0000.0,0012.87,0005.63,0004.39
2022-08-13 06:49:00,,0829.8,5.00,0.00,29.3,27.8,00.0,38.1,31.1,25.2,0000.0,0013.12,0005.60,0004.38
2022-08-13 06:50:00,,0829.8,5.00,0.00,29.3,27.9,00.0,38.1,31.2,25.2,0000.0,0013.00,0005.56,0004.38
2022-08-13 06:51:00,,0829.8,5.00,0.00,29.3,28.0,00.0,38.1,31.2,25.1,0000.0,0013.55,0005.55,0004.38
2022-08-13 06:52:00,,0829.8,5.00,0.00,29.3,28.2,00.0,38.1,31.3,25.2,0000.0,0014.08,0005.53,0004.38
2022-08-13 06:53:00,,0829.8,5.01,0.00,29.4,28.3,00.0,38.1,31.3,25.2,0000.0,0014.19,0005.51,0004.37
2022-08-13 06:54:00,,0829.8,5.00,0.00,29.4,28.4,00.0,38.1,31.3,25.1,0000.0,0014.27,0005.53,0004.38
2022-08-13 06:55:00,,0829.8,5.00,0.00,29.4,28.5,00.0,38.2,31.4,25.1,0000.0,0015.11,0005.56,0004.38
2022-08-13 06:56:00,,0829.8,5.01,0.00,29.4,28.6,00.0,38.2,31.4,25.0,0000.0,0014.78,0005.55,0004.39
2022-08-13 06:57:00,,0829.8,5.01,0.00,29.5,28.2,00.0,38.2,31.3,25.0,0000.0,0014.72,0005.53,0004.41
2022-08-13 06:58:00,,0829.8,5.01,0.00,29.4,27.3,00.0,38.1,31.0,25.0,0000.0,0014.87,0005.52,0004.42
2022-08-13 06:59:00,,0829.8,4.99,0.00,29.3,26.9,00.0,38.1,30.9,25.2,0000.0,0015.29,0005.51,0004.43
